Flag for Germany Weather past 2 weeks in Uelzen, Lower Saxony, Germany

Now
46 °F

Fog.


Feels Like: 46 °F
Forecast: 60 / 85 °F
Wind: 2 mph from Northwest

Location: Fassberg

Current Time: Aug 29, 2015 at 8:29:00 AM

Latest Report: Aug 29, 2015 at 7:20 AM


Visibility: 4 mi

Pressure: 30.24 "Hg

Humidity: 93%

Dew point: 45 °F

Location of UelzenLocation

Historic Weather in Uelzen — Graph

°F

Uelzen temperature yesterday

Maximum temperature yesterday: 66 °F (at 4:20 PM)
Minimum temperature yesterday: 54 °F (at 10:20 PM)
Average temperature yesterday: 59 °F

Past Weeks' High & Low Weather Summary

 TemperatureHumidityPressure
High88 °F (Aug 14, 4:20 PM)100% (Aug 14, 11:20 PM)30.30 "Hg (Aug 14, 11:20 PM)
Low45 °F (Aug 29, 5:20 AM)34% (Aug 22, 5:20 PM)29.62 "Hg (Aug 24, 6:20 PM)
Average64 °F82%29.95 "Hg
* Reported Aug 14 7:20 AM — Aug 29 7:20 AM, Uelzen, Weather by CustomWeather, © 2015

Note: Actual official high and low records may vary slightly from our data, if they occured in-between our weather recording intervals... More about our weather records

Advertising

Uelzen weather history for previous 24 hours

 ConditionsComfort  
Time TempWeatherWind HumidityBarometerVisibility
7:20 AM
Sat, Aug 29
46 °FFog.2 mph93%30.24 "Hg4 mi
6:20 AM46 °FFog.No wind93%30.21 "Hg4 mi
5:20 AM45 °FFog.No wind100%30.21 "Hg5 mi
4:20 AM46 °FFog.2 mph100%30.18 "HgN/A
3:20 AM48 °FFog.No wind94%30.18 "HgN/A
2:20 AM50 °FFog.No wind94%30.18 "HgN/A
1:20 AM50 °FFog.2 mph100%30.18 "HgN/A
12:20 AM55 °FPassing clouds.1 mph94%30.15 "HgN/A
11:20 PM
Fri, Aug 28
55 °FPartly cloudy.2 mph94%30.15 "HgN/A
10:20 PM54 °FFog.2 mph100%30.12 "HgN/A
9:20 PM57 °FFog.2 mph94%30.12 "HgN/A
8:20 PM61 °FScattered clouds.1 mph83%30.09 "HgN/A
7:20 PM64 °FPassing clouds.6 mph73%30.09 "HgN/A
6:20 PM66 °FPassing clouds.8 mph68%30.09 "HgN/A
5:20 PM66 °FScattered clouds.8 mph64%30.07 "HgN/A
4:20 PM66 °FBroken clouds.8 mph64%30.07 "HgN/A
3:20 PM63 °FBroken clouds.7 mph73%30.07 "HgN/A
2:20 PM63 °FBroken clouds.9 mph73%30.07 "HgN/A
1:20 PM61 °FBroken clouds.9 mph77%30.07 "HgN/A
12:20 PM61 °FBroken clouds.12 mph77%30.04 "HgN/A
12:00 PM61 °FBroken clouds.10 mph77%30.04 "HgN/A
11:20 AM59 °FPartly sunny.9 mph82%30.04 "HgN/A
10:20 AM59 °FPartly sunny.8 mph82%30.01 "HgN/A
9:20 AM57 °FPartly sunny.9 mph94%29.98 "Hg5 mi
8:20 AM57 °FFog.7 mph94%29.98 "Hg3 mi
Weather by CustomWeather, © 2015

See weather overviewHow to use our weather pages